map of PHS home
PHS - Airport
Location
City:  Phitsanulok, Phitsanulok, Thailand
ICAO:VTPP
IATA:PHS

Details
Type:Airport (Aerodrome, Airfield)
Use:Public/Civil
Latitude:1646'59"N (16.782939)
Longitude:10016'45"E (100.279122)
Datum:WGS 1984
Elevation:154 ft (47 m)
Variation:0.72W (WMM2015 magnetic declination)
0.01 annual change
Runways:1
Longest:9843 × 148 ft (3000 × 45 m), paved

Time
Time Zone:UTC+7
Local Time:

Weather
METAR:VTPP 091300Z 19002KT 7000 FEW025 25/20 Q1010
TAF:VTPP 090500Z 0906/1006 10007KT 9000 FEW040
BECMG 0923/1001 00000KT 5000 BR NSC
BECMG 1003/1006 12007KT 9000 FEW040

Related Locations
Nearby:
Farthest:SJA: 12127 mi / 19516 km
San Juan de Marcona [San Juan de Marcona Airport], ICA, PE

Find:

   beyond  
but within

Other Information
Maps:
NOTAMs:
Links:
Sources:

  
flag of Thailand   

Sectional Chart

Flight Planning
at skyvector.com

Satellite Image

Google Maps Satellite view

 

Copyright © 2004-2016 Karl L. Swartz. All rights reserved.
The Great Circle Mapper name and logo are trademarks of the Great Circle Mapper.
All other trademarks mentioned herein belong to their respective owners.
Please see credits for attibutions and further copyright information.

  Follow gcmap on Facebook Follow gcmap on Twitter Follow gcmap on Google+ GCmap on LinkedIn

hCard Microformat

Geo Microformat